User: anonymous   Login
Location: Unspecified
(0.0000°N, 0.0000°E)
Time: 03:03:30
(UTC+00:00)
Language:

DSCS III B-5 - Orbit

View from above orbital plane
View from above orbital plane
View from above satellite
View from above satellite

Ground track
Ground track

The orbit data is extracted from the following two-line orbital elements,

1 16117U 85092C   18094.77428116 0.00000000  00000-0  00000-0 0    01
2 16117  15.2192  12.4080 0001780  83.7034 276.3289  0.99316769    01
Epoch (UTC): 04 April 2018 18:34:57
Eccentricity: 0.0001780
inclination: 15.2192°
perigee height: 36048 km
apogee height: 36063 km
right ascension of ascending node: 12.4080°
argument of perigee: 83.7034°
revolutions per day: 0.99316769
mean anomaly at epoch: 276.3289°
orbit number at epoch: 0

The dashed part of the orbit path shows where the satellite is in the earth's shadow,  

DLR